GSAT0211 (GALILEO 14)

Last updated on Feb. 23, 2020, 4:52 a.m. UTC

1 41549U 16030A   20053.34753713  .00000008  00000-0  00000-0 0  9994
2 41549  56.3846 285.1359 0003618 345.4896  14.5729  1.70474603 23349
UTC
Height (km)
Latitude
Longitude
Inclination
Orbital Period
UTC large
Height (km)
Speed (km/s)
/
Latitude / Longitude
Inclination (degrees)
Orbital Period (minutes)
Azimuth
Elevation
Range (km)
Doppler Factor
iOS Compass Heading
iOS Angle

Next 30 passes for location: Hong Kong

Rise time Rise Azimuth (degrees) Set time Set Azimuth (degrees) Duration Max altitude (degrees)

No matching passes for this satellites